Flag for USA

Past Weather in St. Paul, Minnesota, USA — Yesterday and Last 2 Weeks

Now
68 °F

Clear.


Feels Like: 68 °F
Forecast: 81 / 63 °F
Wind: No wind

Location: St. Paul Downtown Holman Field

Current Time: Jul 12, 2020 at 2:56:33 am

Latest Report: Jul 12, 2020 at 1:53 am


Visibility: 9 mi

Pressure: 29.89 "Hg

Humidity: 82%

Dew Point: 62 °F

Location of St. PaulLocation

Past Weather in St. Paul — Graph

°F

St. Paul Temperature Yesterday

Maximum temperature yesterday: 83 °F (at 11:53 am)
Minimum temperature yesterday: 68 °F (at 10:53 pm)
Average temperature yesterday: 75 °F

High & Low Weather Summary for the Past Weeks

 TemperatureHumidityPressure
High92 °F (Jul 8, 4:53 pm)97% (Jun 30, 4:30 am)30.09 "Hg (Jun 30, 4:30 am)
Low66 °F (Jun 27, 3:53 am)41% (Jul 4, 4:53 pm)29.64 "Hg (Jun 28, 5:53 pm)
Average78 °F72%29.87 "Hg
* Reported Jun 27 12:53 am — Jul 12 12:53 am, St. Paul. Weather by CustomWeather, © 2020

Note: Actual official high and low records may vary slightly from our data, if they occured in-between our weather recording intervals... More about our weather records

St. Paul Weather History for the Previous 24 Hours

Scroll right to see more
 ConditionsComfort  
Time TempWeatherWind HumidityBarometerVisibility
12:53 am
Sun, Jul 12
68 °FClear.5 mph78%29.90 "Hg10 mi
11:53 pm
Sat, Jul 11
68 °FClear.5 mph78%29.90 "Hg10 mi
10:53 pm68 °FClear.7 mph76%29.90 "Hg10 mi
9:53 pm69 °FClear.7 mph70%29.89 "Hg10 mi
8:53 pm70 °FSunny.6 mph66%29.88 "Hg10 mi
8:09 pm73 °FSunny.12 mph59%29.90 "Hg10 mi
7:53 pm74 °FThundershowers. Sunny.10 mph60%29.87 "Hg10 mi
6:53 pm80 °FThundershowers. Partly sunny.13 mph52%29.87 "Hg10 mi
6:15 pm80 °FThundershowers. Sunny.7 mph49%29.86 "Hg10 mi
5:53 pm80 °FSunny.7 mph52%29.84 "Hg10 mi
4:53 pm82 °FSunny.3 mph51%29.85 "Hg10 mi
3:53 pm81 °FPassing clouds.7 mph53%29.87 "Hg10 mi
2:53 pm81 °FPassing clouds.7 mph51%29.87 "Hg10 mi
1:53 pm83 °FPassing clouds.10 mph48%29.88 "Hg10 mi
12:53 pm83 °FSunny.8 mph48%29.89 "Hg10 mi
11:53 am83 °FSunny.8 mph50%29.88 "Hg10 mi
10:53 am82 °FSunny.3 mph51%29.90 "Hg10 mi
9:53 am79 °FSunny.6 mph62%29.90 "Hg10 mi
8:53 am77 °FSunny.3 mph66%29.90 "Hg10 mi
7:53 am73 °FSunny.No wind79%29.90 "Hg10 mi
6:53 am72 °FPartly sunny.No wind81%29.91 "Hg10 mi
6:22 am72 °FThundershowers. Overcast.7 mph81%29.93 "Hg10 mi
6:07 am71 °FThunderstorms. Overcast.3 mph81%29.93 "Hg8 mi
5:36 am70 °FThundershowers. Passing clouds.No wind87%29.92 "Hg10 mi
4:53 am70 °FPartly cloudy.No wind84%29.90 "Hg4 mi
3:53 am71 °FPassing clouds.No wind81%29.90 "Hg10 mi
2:53 am70 °FPassing clouds.No wind84%29.89 "Hg10 mi
Weather by CustomWeather, © 2020

See weather overview